Lid_Strength_Index
6 6 5 4 4 4 3 3 3 3 3 2 2 2 2 2 3 5 6 4 6 8 8 7 7 10 10 11 13 10 10 9 9 12 13 13 15 13 14 13 15 15 18 16 16 17 19 10 12 16 13 11 9 8
6 5 4 4 4 4 4 4 3 3 3 2 2 2 2 2 3 4 7 4 3 7 8 5 6 6 7 7 10 9 10 9 9 11 11 11 13 13 13 16 12 16 15 16 16 16 12 10 11 11 10 9 8 8
5 4 4 4 4 4 4 4 3 3 3 3 2 2 3 2 3 4 6 5 6 8 7 7 7 5 4 5 5 9 8 6 7 6 9 10 14 12 15 15 14 12 12 15 14 12 12 11 11 10 9 8 8 8
6 5 5 4 4 4 4 3 3 3 3 3 3 3 3 3 3 4 6 5 6 7 11 9 4 7 5 5 3 4 5 4 5 6 8 10 13 10 13 13 15 14 14 14 14 12 12 11 11 10 9 8 8 8
6 6 5 5 4 4 4 4 3 3 3 3 3 3 3 3 3 4 5 5 5 7 11 10 7 6 5 4 4 3 4 5 6 8 9 10 9 11 11 12 14 14 15 15 16 13 13 13 10 10 9 9 9 9
7 6 5 5 4 4 4 4 3 3 3 3 3 3 3 3 4 6 8 4 4 4 9 12 8 7 5 4 4 5 4 5 6 8 8 8 7 10 13 14 13 12 11 12 14 11 11 10 10 9 9 9 9 8
7 6 6 5 4 4 4 4 4 3 3 3 3 3 3 4 5 8 8 6 5 4 8 12 10 6 5 4 4 4 4 5 6 7 8 8 8 9 12 15 13 12 12 12 11 11 12 11 12 9 9 9 8 9
7 7 6 5 4 4 3 3 3 3 3 3 3 4 4 5 5 8 5 4 4 6 7 12 11 9 4 7 7 4 7 6 6 8 7 9 9 9 14 13 12 11 12 12 12 10 11 10 9 10 9 9 9 10
7 6 6 5 4 3 3 3 3 3 3 4 4 5 6 7 8 6 4 4 4 6 10 10 12 12 4 6 6 6 6 10 6 9 9 8 10 13 12 12 12 12 13 13 12 11 11 10 11 10 10 10 11 10
6 6 5 5 4 3 3 2 2 3 4 5 6 8 9 6 2 3 6 8 9 9 9 12 8 11 8 8 8 8 7 10 12 10 7 10 12 9 9 10 10 11 12 11 13 13 12 11 11 11 11 10 10 10
5 5 5 5 4 3 2 2 3 4 5 6 7 7 5 2 4 6 8 9 10 11 10 10 9 11 7 9 9 7 10 9 12 11 11 13 13 9 9 10 10 10 11 11 11 11 10 10 11 11 11 10 10 10
5 5 5 5 5 4 3 3 3 5 5 5 6 4 4 5 6 9 9 8 9 10 8 8 8 8 7 5 8 8 11 9 13 8 11 14 10 8 9 10 11 11 11 11 11 11 9 10 10 10 11 11 10 9
4 4 4 5 5 4 4 3 3 3 4 4 6 7 7 7 11 11 12 10 10 7 6 7 8 7 6 6 8 9 11 12 8 12 14 12 8 8 9 10 11 11 11 11 11 10 9 10 9 9 10 10 10 9
5 4 4 4 4 5 4 3 3 4 4 7 8 11 10 10 9 9 9 8 6 6 7 7 8 8 7 8 8 11 9 9 13 15 14 9 8 8 9 10 11 12 11 11 11 10 10 10 10 10 10 10 11 11
4 4 4 4 4 2 2 1 3 3 5 8 8 11 9 7 6 5 5 6 5 5 6 7 7 7 8 9 8 9 11 13 13 14 11 7 7 8 9 10 11 11 11 11 11 10 10 9 10 10 10 10 10 11
4 4 4 3 3 2 2 2 3 4 7 8 8 9 7 8 8 7 6 6 5 5 5 6 8 9 10 9 10 11 12 14 13 9 7 6 7 8 9 10 10 10 11 11 11 10 10 10 10 11 10 10 11 10
4 6 3 3 2 1 2 4 6 8 9 8 8 5 6 7 7 6 5 5 4 6 9 8 10 10 8 10 11 10 12 10 8 7 6 6 6 7 8 9 9 10 11 10 10 10 11 10 9 10 11 10 10 10
5 4 3 2 2 4 5 5 7 8 9 8 8 6 5 5 6 5 5 4 5 6 7 9 7 11 12 13 12 9 8 7 6 6 5 6 6 6 7 8 9 9 10 10 10 10 10 11 11 11 11 10 10 10
3 3 2 3 3 5 7 7 6 9 7 6 5 4 5 5 4 4 4 4 4 5 6 7 9 11 10 8 8 7 7 6 7 6 5 5 5 5 5 7 8 9 9 9 10 10 10 10 11 11 11 11 11 10
2 2 2 2 2 5 7 6 4 7 7 6 5 6 6 5 5 5 5 5 5 6 8 9 9 8 8 6 5 6 5 5 6 7 6 6 5 5 5 6 8 8 9 9 9 10 10 10 10 10 11 11 11 11
2 2 1 2 3 4 6 6 6 5 5 6 5 5 6 5 6 6 6 5 6 7 8 6 6 5 4 4 4 4 4 5 5 6 7 6 5 5 5 5 7 7 9 9 10 11 11 10 10 10 11 11 10 10
2 2 3 3 5 6 6 4 6 4 6 6 6 6 7 8 7 6 5 6 7 6 5 5 5 5 5 5 4 5 3 4 4 5 5 5 5 5 5 5 7 8 9 9 9 10 10 10 10 10 11 11 11 11
2 3 4 5 7 6 7 4 7 6 8 7 6 8 8 7 6 4 7 6 5 4 4 4 3 4 4 3 3 3 3 4 5 5 5 4 4 4 5 5 6 7 9 9 9 9 10 11 11 11 11 10 11 11
2 5 7 7 7 8 5 7 6 7 6 7 8 9 8 8 5 7 8 7 5 4 4 4 4 5 4 4 5 4 3 3 4 4 4 4 4 5 4 5 5 6 7 8 8 9 9 10 11 10 11 11 11 12
8 8 7 9 6 8 8 9 8 8 9 8 8 8 7 6 9 9 8 6 5 5 5 4 4 4 5 5 4 4 2 3 4 5 3 3 4 4 5 5 6 6 6 7 8 9 10 10 10 10 10 11 11 11
10 7 8 7 7 8 8 9 8 8 8 8 8 6 6 8 9 9 8 7 6 5 5 5 5 5 5 4 5 4 4 2 2 4 3 2 3 5 6 7 7 7 6 6 7 8 9 9 10 9 10 11 13 11
10 8 6 4 5 6 7 6 6 7 9 9 8 8 8 11 10 8 6 5 5 4 3 3 3 4 4 4 3 2 2 2 2 3 2 2 3 3 4 5 6 6 5 6 7 7 8 9 9 9 9 9 10 10
6 6 9 7 6 5 8 7 8 9 9 7 8 9 10 10 10 6 5 3 3 2 2 2 2 2 3 3 2 2 2 2 1 1 2 2 2 2 2 2 4 9 5 5 6 6 7 8 7 8 8 9 9 8
7 5 5 7 6 6 7 7 7 7 5 7 9 9 8 6 4 4 3 3 2 3 4 4 3 2 2 2 2 2 2 2 4 5 5 5 4 4 2 2 3 5 5 6 11 8 7 7 7 7 7 7 7 7
6 4 6 7 7 8 7 5 6 5 4 5 5 5 5 4 3 2 2 2 3 4 3 3 2 3 3 3 3 3 3 3 3 3 5 5 4 3 3 2 3 3 5 5 6 8 13 9 10 7 7 7 7 6
5 5 6 7 7 6 5 4 4 4 4 5 5 6 6 5 3 2 2 2 2 2 3 3 3 3 3 3 3 4 4 3 3 3 4 2 2 3 3 2 2 3 4 5 6 6 7 7 7 6 6 6 6 7
6 7 8 8 7 5 4 6 6 6 6 6 6 5 5 6 7 4 2 2 2 3 6 3 3 3 2 2 2 4 8 5 4 5 5 3 2 2 2 2 2 3 5 5 6 6 6 6 6 6 6 6 6 6
6 6 7 7 7 8 6 6 7 7 7 7 7 6 6 6 8 4 1 1 2 2 2 2 2 2 1 1 3 5 6 5 8 10 10 10 10 7 3 2 2 2 4 6 5 6 6 6 6 6 6 6 6 6